Powrót do katalogu

COSMOS 2251 DEB

AktywnyVLEO
NORAD 35670·DEBRIS·🇷🇺 Russia

Wystrzelony Jun 16, 1993 z Plesetsk Cosmodrome

Loading…

Następne Przeloty (najbliższe 24 godziny)

TLE

ŚwieżeSource: Space-Track

Epoka: Sep 14, 2026, 06:36 UTC

1 35670U 93036APM 26257.27512919  .00008405  00000-0  64014-3 0  9995
2 35670  73.8905 220.8922 0027354 125.6233 234.7508 15.01910554918540

Śledź COSMOS 2251 DEB w czasie rzeczywistym z AllMySat

Download on the App Store